Time,TemperatureF,DewpointF,PressureIn,WindDirection,WindDirectionDegrees,WindSpeedMPH,WindSpeedGustMPH,Humidity,HourlyPrecipIn,Conditions,Clouds,dailyrainin,SolarRadiationWatts/m^2,SoftwareType,DateUTC
2013-08-06 00:22:00,71.0,66.0,-100.00,NE,41,0.0,4.0,85,0.00,,,0.00,0.000000,,2013-08-06 04:22:00,
2013-08-06 00:33:00,71.0,66.0,-100.00,NE,41,0.0,4.0,85,0.00,,,0.00,0.000000,,2013-08-06 04:33:00,
2013-08-06 00:44:00,71.0,66.0,-100.00,NE,41,0.0,4.0,85,0.00,,,0.00,0.000000,,2013-08-06 04:44:00,
2013-08-06 00:53:00,71.0,66.0,-100.00,NE,41,0.0,4.0,85,0.00,,,0.00,0.000000,,2013-08-06 04:53:00,
2013-08-06 01:32:00,73.0,68.0,-100.00,NE,40,0.0,4.0,85,0.00,,,0.00,0.000000,,2013-08-06 05:32:00,
2013-08-06 01:43:00,73.0,68.0,-100.00,NE,40,0.0,4.0,85,0.00,,,0.00,0.000000,,2013-08-06 05:43:00,
2013-08-06 01:53:00,73.0,68.0,-100.00,NE,40,0.0,4.0,85,0.00,,,0.00,0.000000,,2013-08-06 05:53:00,
2013-08-06 02:22:00,71.0,67.0,-100.00,NE,51,2.0,4.0,88,0.00,,,0.00,0.000000,,2013-08-06 06:22:00,
2013-08-06 02:32:00,71.0,67.0,-100.00,NE,51,2.0,4.0,88,0.00,,,0.00,0.000000,,2013-08-06 06:32:00,
2013-08-06 02:43:00,71.0,67.0,-100.00,NE,51,2.0,4.0,88,0.00,,,0.00,0.000000,,2013-08-06 06:43:00,
2013-08-06 02:52:00,71.0,67.0,-100.00,NE,51,2.0,4.0,88,0.00,,,0.00,0.000000,,2013-08-06 06:52:00,
2013-08-06 03:22:00,71.0,68.0,-100.00,NE,44,3.0,4.0,90,0.00,,,0.00,0.000000,,2013-08-06 07:22:00,
2013-08-06 03:32:00,71.0,68.0,-100.00,NE,44,3.0,4.0,90,0.00,,,0.00,0.000000,,2013-08-06 07:32:00,
2013-08-06 03:43:00,71.0,68.0,-100.00,NE,44,3.0,4.0,90,0.00,,,0.00,0.000000,,2013-08-06 07:43:00,
2013-08-06 03:53:00,71.0,68.0,-100.00,NE,44,3.0,4.0,90,0.00,,,0.00,0.000000,,2013-08-06 07:53:00,
2013-08-06 04:33:00,71.0,68.0,-100.00,ENE,73,1.0,4.0,91,0.00,,,0.00,0.000000,,2013-08-06 08:33:00,
2013-08-06 04:43:00,71.0,68.0,-100.00,ENE,73,1.0,4.0,91,0.00,,,0.00,0.000000,,2013-08-06 08:43:00,
2013-08-06 04:52:00,71.0,68.0,-100.00,ENE,73,1.0,4.0,91,0.00,,,0.00,0.000000,,2013-08-06 08:52:00,
2013-08-06 05:22:00,71.0,69.0,-100.00,ENE,69,1.0,3.0,92,0.00,,,0.00,0.000000,,2013-08-06 09:22:00,
2013-08-06 05:32:00,71.0,69.0,-100.00,ENE,69,1.0,3.0,92,0.00,,,0.00,0.000000,,2013-08-06 09:32:00,
2013-08-06 05:43:00,71.0,69.0,-100.00,ENE,69,1.0,3.0,92,0.00,,,0.00,0.000000,,2013-08-06 09:43:00,
2013-08-06 05:52:00,71.0,69.0,-100.00,ENE,69,1.0,3.0,92,0.00,,,0.00,0.000000,,2013-08-06 09:52:00,
2013-08-06 06:22:00,71.0,69.0,-100.00,NE,37,2.0,3.0,92,0.00,,,0.00,0.000000,,2013-08-06 10:22:00,
2013-08-06 06:32:00,71.0,69.0,-100.00,NE,37,2.0,3.0,92,0.00,,,0.00,0.000000,,2013-08-06 10:32:00,
2013-08-06 06:43:00,71.0,69.0,-100.00,NE,37,2.0,3.0,92,0.00,,,0.00,0.000000,,2013-08-06 10:43:00,
2013-08-06 06:53:00,71.0,69.0,-100.00,NE,37,2.0,3.0,92,0.00,,,0.00,0.000000,,2013-08-06 10:53:00,
2013-08-06 07:22:00,70.0,68.0,-100.00,NE,43,3.0,4.0,92,0.00,,,0.00,3.000000,,2013-08-06 11:22:00,
2013-08-06 07:32:00,70.0,68.0,-100.00,NE,43,3.0,4.0,92,0.00,,,0.00,3.000000,,2013-08-06 11:32:00,
2013-08-06 07:43:00,70.0,68.0,-100.00,NE,43,3.0,4.0,92,0.00,,,0.00,3.000000,,2013-08-06 11:43:00,
2013-08-06 07:53:00,70.0,68.0,-100.00,NE,43,3.0,4.0,92,0.00,,,0.00,3.000000,,2013-08-06 11:53:00,
2013-08-06 08:32:00,73.0,71.0,-100.00,NE,45,2.0,4.0,93,0.00,,,0.00,39.000000,,2013-08-06 12:32:00,
2013-08-06 08:43:00,73.0,71.0,-100.00,NE,45,2.0,4.0,93,0.00,,,0.00,39.000000,,2013-08-06 12:43:00,
2013-08-06 08:52:00,73.0,71.0,-100.00,NE,45,2.0,4.0,93,0.00,,,0.00,39.000000,,2013-08-06 12:52:00,
2013-08-06 09:42:00,80.0,76.0,-100.00,SE,143,5.0,9.0,87,0.00,,,0.00,176.000000,,2013-08-06 13:42:00,
2013-08-06 09:53:00,80.0,76.0,-100.00,SE,143,5.0,9.0,87,0.00,,,0.00,176.000000,,2013-08-06 13:53:00,
2013-08-06 10:22:00,82.0,74.0,-100.00,SSE,148,8.0,11.0,76,0.00,,,0.00,362.000000,,2013-08-06 14:22:00,
2013-08-06 10:32:00,82.0,74.0,-100.00,SSE,148,8.0,11.0,76,0.00,,,0.00,362.000000,,2013-08-06 14:32:00,
2013-08-06 10:42:00,82.0,74.0,-100.00,SSE,148,8.0,11.0,76,0.00,,,0.00,362.000000,,2013-08-06 14:42:00,
2013-08-06 10:53:00,82.0,74.0,-100.00,SSE,148,8.0,11.0,76,0.00,,,0.00,362.000000,,2013-08-06 14:53:00,
2013-08-06 11:23:00,86.0,74.0,-100.00,SSE,152,8.0,13.0,68,0.00,,,0.00,687.000000,,2013-08-06 15:23:00,
2013-08-06 11:33:00,86.0,74.0,-100.00,SSE,152,8.0,13.0,68,0.00,,,0.00,687.000000,,2013-08-06 15:33:00,
2013-08-06 11:44:00,86.0,74.0,-100.00,SSE,152,8.0,13.0,68,0.00,,,0.00,687.000000,,2013-08-06 15:44:00,
2013-08-06 11:52:00,86.0,74.0,-100.00,SSE,152,8.0,13.0,68,0.00,,,0.00,687.000000,,2013-08-06 15:52:00,
2013-08-06 12:43:00,87.0,73.0,-100.00,SE,124,5.0,12.0,63,0.00,,,0.00,754.000000,,2013-08-06 16:43:00,
2013-08-06 12:52:00,87.0,73.0,-100.00,SE,124,5.0,12.0,63,0.00,,,0.00,754.000000,,2013-08-06 16:52:00,
2013-08-06 13:44:00,87.0,71.0,-100.00,SE,134,6.0,13.0,59,0.00,,,0.00,1015.000000,,2013-08-06 17:44:00,
2013-08-06 13:52:00,87.0,71.0,-100.00,SE,134,6.0,13.0,59,0.00,,,0.00,1015.000000,,2013-08-06 17:52:00,
2013-08-06 14:22:00,86.0,69.0,-100.00,SE,137,7.0,12.0,58,0.00,,,0.00,799.000000,,2013-08-06 18:22:00,
2013-08-06 14:32:00,86.0,69.0,-100.00,SE,137,7.0,12.0,58,0.00,,,0.00,799.000000,,2013-08-06 18:32:00,
2013-08-06 14:43:00,86.0,69.0,-100.00,SE,137,7.0,12.0,58,0.00,,,0.00,799.000000,,2013-08-06 18:43:00,
2013-08-06 14:52:00,86.0,69.0,-100.00,SE,137,7.0,12.0,58,0.00,,,0.00,799.000000,,2013-08-06 18:52:00,
2013-08-06 15:22:00,86.0,70.0,-100.00,SSE,148,8.0,15.0,60,0.00,,,0.00,753.000000,,2013-08-06 19:22:00,
2013-08-06 15:32:00,86.0,70.0,-100.00,SSE,148,8.0,15.0,60,0.00,,,0.00,753.000000,,2013-08-06 19:32:00,
2013-08-06 15:42:00,86.0,70.0,-100.00,SSE,148,8.0,15.0,60,0.00,,,0.00,753.000000,,2013-08-06 19:42:00,
2013-08-06 15:52:00,86.0,70.0,-100.00,SSE,148,8.0,15.0,60,0.00,,,0.00,753.000000,,2013-08-06 19:52:00,
2013-08-06 16:22:00,85.0,70.0,-100.00,SE,145,7.0,14.0,60,0.00,,,0.00,676.000000,,2013-08-06 20:22:00,
2013-08-06 16:32:00,85.0,70.0,-100.00,SE,145,7.0,14.0,60,0.00,,,0.00,676.000000,,2013-08-06 20:32:00,
2013-08-06 16:44:00,85.0,70.0,-100.00,SE,145,7.0,14.0,60,0.00,,,0.00,676.000000,,2013-08-06 20:44:00,
2013-08-06 16:52:00,85.0,70.0,-100.00,SE,145,7.0,14.0,60,0.00,,,0.00,676.000000,,2013-08-06 20:52:00,
2013-08-06 17:32:00,82.0,70.0,-100.00,SSE,149,7.0,13.0,67,0.00,,,0.00,214.000000,,2013-08-06 21:32:00,
2013-08-06 17:43:00,82.0,70.0,-100.00,SSE,149,7.0,13.0,67,0.00,,,0.00,214.000000,,2013-08-06 21:43:00,
2013-08-06 17:52:00,82.0,70.0,-100.00,SSE,149,7.0,13.0,67,0.00,,,0.00,214.000000,,2013-08-06 21:52:00,
2013-08-06 18:22:00,82.0,71.0,-100.00,SE,142,5.0,10.0,69,0.00,,,0.00,210.000000,,2013-08-06 22:22:00,
2013-08-06 18:32:00,82.0,71.0,-100.00,SE,142,5.0,10.0,69,0.00,,,0.00,210.000000,,2013-08-06 22:32:00,
2013-08-06 18:43:00,82.0,71.0,-100.00,SE,142,5.0,10.0,69,0.00,,,0.00,210.000000,,2013-08-06 22:43:00,
2013-08-06 18:53:00,82.0,71.0,-100.00,SE,142,5.0,10.0,69,0.00,,,0.00,210.000000,,2013-08-06 22:53:00,
2013-08-06 19:22:00,82.0,71.0,-100.00,SSE,147,6.0,11.0,70,0.00,,,0.00,164.000000,,2013-08-06 23:22:00,
2013-08-06 19:33:00,82.0,71.0,-100.00,SSE,147,6.0,11.0,70,0.00,,,0.00,164.000000,,2013-08-06 23:33:00,
2013-08-06 19:43:00,82.0,71.0,-100.00,SSE,147,6.0,11.0,70,0.00,,,0.00,164.000000,,2013-08-06 23:43:00,
2013-08-06 19:52:00,82.0,71.0,-100.00,SSE,147,6.0,11.0,70,0.00,,,0.00,164.000000,,2013-08-06 23:52:00,
2013-08-06 20:21:00,80.0,70.0,-100.00,SE,138,4.0,10.0,72,0.00,,,0.00,102.000000,,2013-08-07 00:21:00,
2013-08-06 20:32:00,80.0,70.0,-100.00,SE,138,4.0,10.0,72,0.00,,,0.00,102.000000,,2013-08-07 00:32:00,
2013-08-06 20:43:00,80.0,70.0,-100.00,SE,138,4.0,10.0,72,0.00,,,0.00,102.000000,,2013-08-07 00:43:00,
2013-08-06 20:52:00,80.0,70.0,-100.00,SE,138,4.0,10.0,72,0.00,,,0.00,102.000000,,2013-08-07 00:52:00,
2013-08-06 21:32:00,78.0,71.0,-100.00,NE,48,2.0,5.0,78,0.00,,,0.00,3.000000,,2013-08-07 01:32:00,
2013-08-06 21:43:00,78.0,71.0,-100.00,NE,48,2.0,5.0,78,0.00,,,0.00,3.000000,,2013-08-07 01:43:00,
2013-08-06 21:52:00,78.0,71.0,-100.00,NE,48,2.0,5.0,78,0.00,,,0.00,3.000000,,2013-08-07 01:52:00,
2013-08-06 22:22:00,76.0,70.0,-100.00,East,89,0.0,2.0,82,0.00,,,0.00,0.000000,,2013-08-07 02:22:00,
2013-08-06 22:33:00,76.0,70.0,-100.00,East,89,0.0,2.0,82,0.00,,,0.00,0.000000,,2013-08-07 02:33:00,
2013-08-06 22:43:00,76.0,70.0,-100.00,East,89,0.0,2.0,82,0.00,,,0.00,0.000000,,2013-08-07 02:43:00,
2013-08-06 22:53:00,76.0,70.0,-100.00,East,89,0.0,2.0,82,0.00,,,0.00,0.000000,,2013-08-07 02:53:00,
2013-08-06 23:43:00,76.0,71.0,-100.00,NE,51,1.0,3.0,85,0.00,,,0.00,0.000000,,2013-08-07 03:43:00,
2013-08-06 23:52:00,76.0,71.0,-100.00,NE,51,1.0,3.0,85,0.00,,,0.00,0.000000,,2013-08-07 03:52:00,